Home > Weather > Montreux > Past weeks

Flag for Switzerland Past Weather in Montreux, Vaud, Switzerland — Yesterday and Last 2 Weeks

Now
70 °F

Mild.


Feels Like: 73 °F
Forecast: 49 / 59 °F
Wind: 8 mph from Northwest

Location: Aigle

Current Time: May 28, 2016 at 3:49:41 PM

Latest Report: May 28, 2016 at 3:00 PM


Visibility: N/A

Pressure: 29.83 "Hg

Humidity: 73%

Dew Point: 61 °F

Location of MontreuxLocation

Past Weather in Montreux — Graph

°F

Montreux Temperature Yesterday

Maximum temperature yesterday: 75 °F (at 4:00 PM)
Minimum temperature yesterday: 55 °F (at 3:00 AM)
Average temperature yesterday: 66 °F

High & Low Weather Summary for the Past Weeks

 TemperatureHumidityPressure
High75 °F (May 27, 4:00 PM)96% (May 14, 3:00 AM)30.24 "Hg (May 14, 3:00 AM)
Low38 °F (May 16, 6:00 AM)37% (May 15, 5:00 PM)29.62 "Hg (May 13, 3:00 PM)
Average56 °F76%29.99 "Hg
* Reported May 13 2:00 PM — May 28 2:00 PM, Montreux, Weather by CustomWeather, © 2016

Note: Actual official high and low records may vary slightly from our data, if they occured in-between our weather recording intervals... More about our weather records

Advertising

Montreux Weather History for the Previous 24 Hours

Scroll right to see more
 ConditionsComfort  
Time TempWeatherWind HumidityBarometerVisibility
2:00 PM
Sat, May 28
68 °FScattered clouds.10 mph76%29.85 "Hg11 mi
1:00 PM69 °FMild.12 mph85%29.87 "HgN/A
12:00 PM68 °FMild.3 mph83%29.89 "HgN/A
11:00 AM64 °FMild.1 mph90%29.93 "HgN/A
10:00 AM63 °FMild.2 mph90%29.95 "HgN/A
9:00 AM63 °FMild.8 mph87%29.96 "HgN/A
8:00 AM63 °FPartly sunny.1 mph89%29.94 "Hg19 mi
7:00 AM62 °FMild.5 mph91%29.94 "HgN/A
6:00 AM62 °FCool.2 mph94%29.93 "HgN/A
5:00 AM62 °FOvercast.2 mph92%29.94 "Hg12 mi
4:00 AM62 °FCool.2 mph90%29.95 "HgN/A
3:00 AM64 °FMild.2 mph85%29.96 "HgN/A
2:00 AM65 °FMild.14 mph81%29.95 "HgN/A
1:00 AM66 °FMild.15 mph74%29.91 "HgN/A
12:00 AM64 °FMild.5 mph83%29.89 "HgN/A
11:00 PM
Fri, May 27
64 °FMild.3 mph87%29.90 "HgN/A
10:00 PM66 °FMild.5 mph82%29.89 "HgN/A
9:00 PM67 °FMild.2 mph84%29.88 "HgN/A
8:00 PM72 °FScattered clouds.1 mph75%29.86 "Hg11 mi
7:00 PM74 °FMild.2 mph66%29.85 "HgN/A
6:00 PM75 °FMild.2 mph62%29.87 "HgN/A
5:00 PM74 °FPartly sunny.2 mph50%29.88 "Hg12 mi
4:00 PM75 °FMild.5 mph49%29.88 "HgN/A
3:00 PM75 °FMild.7 mph49%29.89 "HgN/A
Weather by CustomWeather, © 2016

See weather overviewHow to use our weather pages